When you browse on this site, cookies collect data to enhance your experience and personalize the content and advertising you see.
Visit our Privacy Policy to learn more. By continuing to use the site, you agree to this use of cookies and data.
  • In Latvia
  • List of Countries
  • For 7 days
  • Water Temperature
  • Satellite Maps
  • Weather Map
  • Weather Widgets
  • user-avatar
    Login

    Hourly Weather Khartsyzk

    Today, 10 December, Monday

    Time Temperature Precipitation Wind Pressure Humidity
    00:00 0°C° 0.1 mm 5 mps 740 mmHg 89%
    01:00 0°C° 0 mm 5 mps 740 mmHg 89%
    02:00 0°C° 0 mm 5 mps 740 mmHg 88%
    03:00 0°C° 0 mm 4 mps 739 mmHg 91%
    04:00 0°C° 0 mm 4 mps 739 mmHg 91%
    05:00 -1°C° 0 mm 5 mps 739 mmHg 90%
    06:00 -1°C° 0 mm 5 mps 739 mmHg 89%
    07:00 -1°C° 0 mm 5 mps 739 mmHg 89%
    08:00 -1°C° 0 mm 5 mps 738 mmHg 89%
    09:00 -1°C° 0 mm 5 mps 738 mmHg 88%
    10:00 -1°C° 0.2 mm 5 mps 738 mmHg 88%
    11:00 -2°C° 0.2 mm 6 mps 738 mmHg 88%
    12:00 -2°C° 0.2 mm 6 mps 738 mmHg 88%
    13:00 -1°C° 0.7 mm 6 mps 737 mmHg 89%
    14:00 -1°C° 0.7 mm 6 mps 737 mmHg 89%
    15:00 -1°C° 0.7 mm 6 mps 737 mmHg 90%
    16:00 -1°C° 0.7 mm 6 mps 737 mmHg 91%
    17:00 0°C° 0.7 mm 5 mps 737 mmHg 92%
    18:00 0°C° 0.7 mm 5 mps 737 mmHg 93%
    19:00 0°C° 0.2 mm 5 mps 737 mmHg 94%
    20:00 0°C° 0.2 mm 5 mps 737 mmHg 95%
    21:00 0°C° 0.2 mm 5 mps 737 mmHg 96%
    22:00 +1°C° 0.3 mm 4 mps 737 mmHg 96%
    23:00 +1°C° 0.3 mm 4 mps 737 mmHg 97%

    Tomorrow, 11 December, Tuesday

    Time Temperature Precipitation Wind Pressure Humidity
    00:00 +1°C° 0.3 mm 4 mps 737 mmHg 97%
    01:00 +1°C° 0.1 mm 4 mps 737 mmHg 97%
    02:00 +2°C° 0.1 mm 3 mps 737 mmHg 98%
    03:00 +3°C° 0.1 mm 3 mps 737 mmHg 98%
    04:00 +3°C° 0 mm 2 mps 737 mmHg 98%
    05:00 +3°C° 0 mm 2 mps 737 mmHg 98%
    06:00 +3°C° 0 mm 2 mps 737 mmHg 98%
    07:00 +3°C° 0 mm 2 mps 737 mmHg 98%
    08:00 +3°C° 0 mm 2 mps 738 mmHg 98%
    09:00 +3°C° 0 mm 2 mps 738 mmHg 97%
    10:00 +2°C° 0.1 mm 3 mps 738 mmHg 97%
    11:00 +3°C° 0.1 mm 3 mps 737 mmHg 96%
    12:00 +3°C° 0.1 mm 4 mps 737 mmHg 95%
    13:00 +3°C° 0.6 mm 4 mps 737 mmHg 95%
    14:00 +1°C° 0.6 mm 4 mps 736 mmHg 95%
    15:00 +1°C° 0.6 mm 5 mps 736 mmHg 95%
    16:00 +1°C° 1.2 mm 5 mps 736 mmHg 94%
    17:00 +1°C° 1.2 mm 5 mps 736 mmHg 93%
    18:00 +1°C° 1.2 mm 6 mps 736 mmHg 93%
    19:00 +1°C° 0.5 mm 6 mps 735 mmHg 92%
    20:00 +2°C° 0.5 mm 7 mps 735 mmHg 92%
    21:00 +2°C° 0.5 mm 7 mps 734 mmHg 92%
    22:00 +1°C° 0.2 mm 8 mps 734 mmHg 92%
    23:00 +2°C° 0.2 mm 8 mps 734 mmHg 92%

    Day after tomorrow, 12 December, Wednesday

    Time Temperature Precipitation Wind Pressure Humidity
    00:00 +2°C° 0.2 mm 8 mps 733 mmHg 92%
    01:00 +2°C° 0.1 mm 8 mps 733 mmHg 91%
    02:00 +2°C° 0.1 mm 8 mps 733 mmHg 91%
    03:00 +4°C° 0.1 mm 8 mps 733 mmHg 90%
    04:00 +4°C° 0.1 mm 8 mps 733 mmHg 89%
    05:00 +2°C° 0.1 mm 8 mps 733 mmHg 87%
    06:00 +2°C° 0.1 mm 8 mps 732 mmHg 86%
    07:00 +2°C° 0.1 mm 8 mps 733 mmHg 85%
    08:00 +1°C° 0.1 mm 8 mps 733 mmHg 84%
    09:00 +1°C° 0.1 mm 8 mps 734 mmHg 83%
    10:00 +1°C° 0.1 mm 9 mps 734 mmHg 81%
    11:00 +1°C° 0.1 mm 9 mps 734 mmHg 80%
    12:00 +1°C° 0.1 mm 9 mps 735 mmHg 79%
    13:00 +1°C° 0.1 mm 9 mps 735 mmHg 78%
    14:00 +1°C° 0.1 mm 9 mps 735 mmHg 77%
    15:00 +1°C° 0.1 mm 9 mps 736 mmHg 75%
    16:00 0°C° 0 mm 9 mps 736 mmHg 76%
    17:00 0°C° 0 mm 8 mps 737 mmHg 77%
    18:00 -1°C° 0 mm 7 mps 737 mmHg 79%
    19:00 -1°C° 0 mm 7 mps 738 mmHg 80%
    20:00 -1°C° 0 mm 6 mps 738 mmHg 81%
    21:00 -2°C° 0 mm 6 mps 739 mmHg 82%
    22:00 -2°C° 0 mm 6 mps 739 mmHg 82%
    23:00 -1°C° 0 mm 5 mps 740 mmHg 83%

    13 December, Thursday

    Time Temperature Precipitation Wind Pressure Humidity
    00:00 -1°C° 0 mm 5 mps 740 mmHg 83%
    01:00 -2°C° 0 mm 4 mps 741 mmHg 84%
    02:00 -2°C° 0 mm 4 mps 741 mmHg 84%
    03:00 -2°C° 0 mm 4 mps 741 mmHg 85%
    04:00 -2°C° 0 mm 4 mps 742 mmHg 85%
    05:00 -2°C° 0 mm 4 mps 742 mmHg 85%
    06:00 -2°C° 0 mm 4 mps 742 mmHg 85%
    07:00 -2°C° 0 mm 4 mps 743 mmHg 84%
    08:00 -1°C° 0 mm 4 mps 743 mmHg 84%
    09:00 -1°C° 0 mm 4 mps 744 mmHg 84%
    10:00 0°C° 0 mm 5 mps 744 mmHg 78%
    11:00 +1°C° 0 mm 5 mps 744 mmHg 71%
    12:00 +2°C° 0 mm 6 mps 744 mmHg 65%
    13:00 +2°C° 0 mm 5 mps 744 mmHg 65%
    14:00 +2°C° 0 mm 5 mps 744 mmHg 65%
    15:00 +2°C° 0 mm 5 mps 744 mmHg 64%
    16:00 +1°C° 0 mm 4 mps 745 mmHg 69%
    17:00 0°C° 0 mm 4 mps 745 mmHg 74%
    18:00 0°C° 0 mm 3 mps 745 mmHg 79%
    19:00 0°C° 0 mm 3 mps 745 mmHg 81%
    20:00 0°C° 0 mm 3 mps 745 mmHg 84%
    21:00 0°C° 0 mm 3 mps 745 mmHg 86%
    22:00 0°C° 0 mm 3 mps 745 mmHg 87%
    23:00 0°C° 0 mm 3 mps 745 mmHg 88%

    14 December, Friday

    Time Temperature Precipitation Wind Pressure Humidity
    00:00 0°C° 0 mm 3 mps 746 mmHg 89%
    01:00 -1°C° 0 mm 3 mps 746 mmHg 90%
    02:00 -1°C° 0 mm 3 mps 746 mmHg 91%
    03:00 -1°C° 0 mm 3 mps 746 mmHg 92%
    04:00 -1°C° 0 mm 2 mps 746 mmHg 92%
    05:00 -1°C° 0 mm 2 mps 746 mmHg 92%
    06:00 -1°C° 0 mm 2 mps 746 mmHg 92%
    07:00 -1°C° 0 mm 2 mps 746 mmHg 92%
    08:00 -1°C° 0 mm 2 mps 746 mmHg 91%
    09:00 +1°C° 0 mm 1 mps 747 mmHg 91%
    10:00 +2°C° 0 mm 1 mps 747 mmHg 85%
    11:00 +2°C° 0 mm 2 mps 747 mmHg 80%
    12:00 +3°C° 0 mm 2 mps 747 mmHg 75%
    13:00 +4°C° 0 mm 1 mps 748 mmHg 75%
    14:00 +4°C° 0 mm 1 mps 748 mmHg 75%
    15:00 +3°C° 0 mm 0 mps 748 mmHg 75%
    16:00 +3°C° 0 mm 0 mps 748 mmHg 78%
    17:00 +2°C° 0 mm 0 mps 748 mmHg 81%
    18:00 +1°C° 0 mm 0 mps 748 mmHg 84%
    19:00 +2°C° 0 mm 1 mps 748 mmHg 85%
    20:00 +1°C° 0 mm 1 mps 749 mmHg 86%
    21:00 +1°C° 0 mm 1 mps 749 mmHg 87%
    22:00 +1°C° 0 mm 1 mps 749 mmHg 88%
    23:00 +1°C° 0 mm 1 mps 749 mmHg 88%

    15 December, Saturday

    Time Temperature Precipitation Wind Pressure Humidity
    00:00 +1°C° 0 mm 1 mps 749 mmHg 89%
    01:00 +1°C° 0 mm 1 mps 749 mmHg 90%
    02:00 +1°C° 0 mm 1 mps 749 mmHg 90%
    03:00 -2°C° 0 mm 2 mps 750 mmHg 91%
    04:00 -2°C° 0 mm 2 mps 750 mmHg 92%
    05:00 -2°C° 0 mm 2 mps 750 mmHg 92%
    06:00 -2°C° 0 mm 2 mps 750 mmHg 93%
    07:00 -2°C° 0 mm 2 mps 751 mmHg 93%
    08:00 -2°C° 0 mm 2 mps 751 mmHg 93%
    09:00 -2°C° 0 mm 3 mps 751 mmHg 93%
    10:00 -1°C° 0 mm 3 mps 752 mmHg 90%
    11:00 -1°C° 0 mm 3 mps 752 mmHg 87%
    12:00 -1°C° 0 mm 3 mps 752 mmHg 84%
    13:00 -1°C° 0 mm 3 mps 753 mmHg 83%
    14:00 -1°C° 0 mm 3 mps 753 mmHg 82%
    15:00 -1°C° 0 mm 3 mps 753 mmHg 81%
    16:00 -1°C° 0 mm 3 mps 753 mmHg 82%
    17:00 -2°C° 0 mm 3 mps 754 mmHg 83%
    18:00 -4°C° 0 mm 3 mps 754 mmHg 84%
    19:00 -4°C° 0 mm 3 mps 754 mmHg 83%
    20:00 -4°C° 0 mm 3 mps 754 mmHg 83%
    21:00 -4°C° 0 mm 3 mps 755 mmHg 82%
    22:00 -4°C° 0 mm 3 mps 755 mmHg 81%
    23:00 -4°C° 0 mm 3 mps 755 mmHg 81%
    Show more